Regional Weather Roundup
Issued by NWS

Home | Current Version | Previous Version | Graphics & Text | Print | Product List | Glossary On
Versions: 1 2 3 4 5 6 7 8 9 10 11 12 13 14 15 16 17 18 19 20 21 22 23 24 25 26 27 28 29 30 31 32 33 34 35 36 37 38 39 40 41 42 43 44 45 46 47 48 49 50
000
ASUS43 KLOT 010421
RWRIL

ILLINOIS REGIONAL WEATHER ROUNDUP
NATIONAL WEATHER SERVICE CHICAGO/ROMEOVILLE IL
1100 PM CDT TUE JUN 30 2015

NOTE: "FAIR" INDICATES FEW OR NO CLOUDS BELOW 12,000 FEET WITH NO
SIGNIFICANT WEATHER AND/OR OBSTRUCTIONS TO VISIBILITY.

* THESE STATIONS ARE NOT UNDER NWS QUALITY CONTROL. THEY ALSO MAY NOT
  REPORT WEATHER SUCH AS PRECIPITATION OR FOG.

ILZ001-002-007-009-015-016-024-010500-
NORTHWEST ILLINOIS

CITY           SKY/WX    TMP DP  RH WIND       PRES   REMARKS
MOLINE         PTCLDY    67  63  87 CALM      29.90R
STERLING*      CLEAR     63  61  94 W3        29.89S
SAVANNA*       CLEAR     66  60  81 CALM      29.90S
$$

ILZ003-004-008-010-011-017-018-010500-
NORTH CENTRAL ILLINOIS

CITY           SKY/WX    TMP DP  RH WIND       PRES   REMARKS
ROCKFORD       PTCLDY    68  60  75 E10       29.91R
FREEPORT*      PTCLDY    63  59  87 NE5       29.92S
ROCHELLE*      CLEAR     64  63  94 CALM      29.89F
DE KALB*       CLEAR     59  56  91 E8        29.92S
PERU*          CLEAR     68  61  78 CALM      29.90S
$$

ILZ005-006-012>014-019>023-010500-
NORTHEAST ILLINOIS

CITY           SKY/WX    TMP DP  RH WIND       PRES   REMARKS
CHICAGO-OHARE  MOCLDY    59  53  80 NE7       29.92R
CHICAGO-MIDWAY PTCLDY    62  55  77 NE10      29.92R
AURORA         PTCLDY    63  56  78 E9        29.91R
LANSING*       PTCLDY    58  55  87 CALM      29.92S
JOLIET*        PTCLDY    63  60  88 E6        29.91S
WAUKEGAN       MOCLDY    55  52  89 N7          N/A
DUPAGE AIRPORT CLOUDY    61  55  81 NE6       29.91R
KANKAKEE*      PTCLDY    62  60  94 NE5       29.91F
WHEELING       CLOUDY    58  52  80 NE9       29.94R
MORRIS*        CLEAR     64  61  88 E7        29.89S
ROMEOVILLE*    MOCLDY    61  56  86 E6        29.92R
NORTHERLY ISL    N/A     58  53  84 N10         N/A
$$

LMZ740>746-010500-
SOUTHERN LAKE MICHIGAN

STATION/POSITION SKY/WX   TEMP    WIND        PRES    VSBY  WAVE
                          AIR SEA DIR/SP/G                  HT/PER
                          (F)     (DEG/KT/KT) (MB)    (MI)  (FT/S)
HARRISON CRIB              58      10/ 11/ 14   N/A
BURNHAM HARBOR             58      10/  6/ 10   N/A
CALUMET HARBOR             59     340/  5/  6   N/A
BURNS HARBOR               60      30/  5/  6 1013.2R
MICHIGAN CITY              61     360/  8/  9   N/A
MICHIGAN CITY 6N           62 65   10/  6/ 10   N/A           3/ 4
ST. JOSEPH                 63 64                N/A           4/ 5
$$

ILZ025>027-034>036-040-047-049-050-058-095>099-010500-
WEST-CENTRAL ILLINOIS

CITY           SKY/WX    TMP DP  RH WIND       PRES   REMARKS
QUINCY         MOCLDY    70  68  93 CALM      29.89F
GALESBURG*     PTCLDY    68  63  83 NE6       29.90S
MACOMB*        CLOUDY    70  69  97 CALM      29.92R FOG
JACKSONVILLE*  PTCLDY    72  69  92 CALM      29.89F
PITTSFIELD*    MOCLDY    72  68  87 CALM      29.91S
$$

ILZ028>032-037-038-041>044-048-051>054-059>061-010500-
CENTRAL ILLINOIS

CITY           SKY/WX    TMP DP  RH WIND       PRES   REMARKS
PONTIAC        PTCLDY    65  64  96 CALM      29.90F
BLOOMINGTON    CLEAR     69  64  84 NE3       29.91S
DECATUR        MOCLDY    69  63  81 CALM      29.90R
PEORIA         CLEAR     71  63  75 E6        29.90R
LACON*         PTCLDY    65  63  93 CALM      29.89S
LINCOLN*       PTCLDY    69  65  86 CALM      29.89F
SPRINGFIELD    PTCLDY    71  68  90 W3        29.89S FOG
TAYLORVILLE    MOCLDY    68  66  94 CALM      29.90R
$$

ILZ033-039-045-046-055>057-062-063-010500-
EAST-CENTRAL ILLINOIS

CITY           SKY/WX    TMP DP  RH WIND       PRES   REMARKS
CHAMPAIGN      PTCLDY    69  63  81 N5        29.90R
DANVILLE*      PTCLDY    66  64  93 CALM      29.87S
RANTOUL*       PTCLDY    71  65  80 N3        29.90R
MATTOON        PTCLDY    68  67  96 CALM      29.89R FOG
PARIS*         CLEAR     69  65  90 N3        29.90R
$$

ILZ079-100>102-010500-
SOUTHWEST ILLINOIS

CITY           SKY/WX    TMP DP  RH WIND       PRES   REMARKS
ALTON          MOCLDY    69  69 100 CALM      29.91R
BELLEVILLE     PTCLDY    72  72  99 CALM      29.89S
CAHOKIA*       PTCLDY    73  69  87 CALM      29.90R
SPARTA*        PTCLDY    73  70  88 SW3       29.92S
$$

ILZ064>066-069>071-074>076-080>082-084>086-088>090-092>094-010500-
SOUTH-CENTRAL ILLINOIS

CITY           SKY/WX    TMP DP  RH WIND       PRES   REMARKS
CARBONDALE     MOCLDY    73  69  87 SW5       29.91R
CAIRO*         MOCLDY    78  70  77 CALM      29.92R HX  80
EFFINGHAM*     MOCLDY    72  67  83 CALM      29.91S
MARION         MOCLDY    73  70  88 S3        29.92S
MT. VERNON     MOCLDY    70  64  83 CALM      29.91S
CENTRALIA*     CLOUDY    71  67  87 SW5       29.91R
SALEM*         CLOUDY    71  68  88 CALM      29.90S
METROPOLIS*    MOCLDY    76  71  85 CALM      29.93S
$$

ILZ067-068-072-073-078-083-087-091-010500-
SOUTHEAST ILLINOIS

CITY           SKY/WX    TMP DP  RH WIND       PRES   REMARKS
LAWRENCEVILLE  CLOUDY    74  69  85 NW5       29.89R
FLORA*         PTCLDY    71  67  88 W5        29.90R
FAIRFIELD*     MOCLDY    71  69  95 CALM      29.89R
HARRISBURG*    MOCLDY    71  71  99 CALM      29.92S
ROBINSON*      PTCLDY    70  68  95 CALM      29.89S
CARMI*         PTCLDY    73  65  75 SW5       29.89F
$$

ABBREVIATIONS USED IN REMARKS
   TC - TEMPERATURE IN CELSIUS
  WCI - WIND CHILL INDEX
   HX - HEAT INDEX
  VSB - VISIBILITY
$$




USA.gov is the U.S. government's official web portal to all federal, state and local government web resources and services.